アトラス彗星

C/2021 P4 ( ATLAS )

English version
Home page
Updated on May 16, 2022

---------------------------------------------------------------------

・ プロフィール

発見日 2021年8月10日
発見光度 19.4等
発見者 Asteroid Terrestrial-Impact Last Alert System (ATLAS) search program

・ 写真集

・ 軌道要素

Epoch 2022 Jan. 21.0 TT = JDT 2459600.5
T 2022 July 30.37902 TT                                 Rudenko
q   1.0804766            (2000.0)            P               Q
z  +0.0031969      Peri.  175.82271     -0.96755583     -0.18539981
 +/-0.0000018      Node   348.09487     +0.20093073     -0.15276568
e   0.9965458      Incl.   56.31075     +0.15317493     -0.97071600
From 639 observations 2021 Aug. 10-2022 Apr. 12, mean residual 0".6.

・ 星図

・ 光度変化

        m1 = 7.8 + 5 logΔ + 11.5 log r

---------------------------------------------------------------------

軌道要素はM.P.E.C. 2022-H04に掲載されたものです。
星図はステラナビゲータ Ver.10 (アストロアーツ) で作成したものです。
光度グラフはComet for Windowsで作成したものです。

---------------------------------------------------------------------

Copyright(C) Seiichi Yoshida (comet@aerith.net). All rights reserved.